[[{"header":{"parameterUnit":"m.s-1","parameterCategory":1,"la1":30.2991,"la2":30.254,"lo1":-89.0895,"lo2":-89.0444,"dy":0.0017,"dx":0.0017,"nx":28,"ny":28,"refTime":"2023-11-09T09:00:00:Z","depth":0,"parameterNumber":2,"parameterNumberName":"U-component_of_WINDS"},"data":[0,0,0,0,0,0,0,0,0,0,0,0,0,0,0,0,0,0,0,0,0,0,0,0,0,0,0,0,0,0,0,0,0,0,0,0,0,0,0,0,0,0,0,0,0,0,0,0,0,0,0,0,0,0,0,0,0,0,-3.4595,-3.4596,0,-3.463,-3.4631,-3.4631,-3.4576,-3.4574,-3.4572,-3.457,-3.4608,-3.4611,-3.4614,0,0,0,0,0,0,0,0,0,0,0,0,0,-3.4484,-3.4486,-3.4595,-3.4596,-3.4596,-3.463,-3.4631,-3.4631,-3.4576,-3.4574,-3.4571,-3.4569,-3.4607,-3.461,-3.4614,0,0,0,0,0,0,0,0,0,0,0,0,0,-3.4527,-3.4487,-3.4595,-3.4573,-3.4571,-3.463,-3.4631,-3.4631,-3.4577,-3.4574,-3.4571,-3.4568,-3.4606,-3.461,-3.4614,-3.4698,0,0,-3.4627,-3.4629,0,0,0,0,0,0,0,0,-3.4524,-3.4531,-3.4575,-3.4574,-3.4572,-3.4596,-3.4605,-3.4654,-3.4577,-3.4575,-3.457,-3.4567,-3.4606,-3.461,-3.4623,-3.4699,-3.4701,-3.4627,-3.463,-3.4632,-3.4633,0,0,0,0,0,0,0,-3.4522,-3.4529,-3.4609,-3.4576,-3.4574,-3.4562,-3.4565,-3.4614,-3.4606,-3.4575,-3.4571,-3.4575,-3.4605,-3.4619,-3.4624,-3.4702,-3.4627,-3.4631,-3.4634,-3.4635,-3.485,-3.4853,0,0,0,0,0,0,-3.4521,-3.4527,-3.4608,-3.461,-3.4541,-3.4566,-3.457,-3.4591,-3.4605,-3.4605,-3.4578,-3.4573,-3.4614,-3.4619,-3.4625,-3.4723,-3.4632,-3.4636,-3.4638,-3.4846,-3.485,-3.4854,0,0,0,0,0,0,-3.4519,-3.4529,-3.4607,-3.4568,-3.4577,-3.4571,-3.4596,-3.4593,-3.4607,-3.4608,-3.4607,-3.4594,-3.4612,-3.4619,-3.468,-3.4724,-3.4638,-3.4641,-3.4843,-3.4848,-3.4852,-3.4921,0,0,0,0,0,0,-3.4516,-3.4528,-3.4559,-3.4569,-3.4579,-3.466,-3.4599,-3.4596,-3.4615,-3.4608,-3.4622,-3.4622,-3.461,-3.4674,-3.4684,-3.4728,-3.4645,-3.4839,-3.4845,-3.4851,-3.4915,-3.4928,-3.4939,0,0,0,0,0,-3.4512,-3.4577,-3.4561,-3.4571,-3.4617,-3.4663,-3.4669,-3.4653,-3.4618,-3.465,-3.4651,-3.4622,-3.4718,-3.4681,-3.4692,-3.4738,-3.4836,-3.4843,-3.485,-3.491,-3.4925,-3.4939,0,0,0,0,0,0,-3.4572,-3.4578,-3.4559,-3.463,-3.4646,-3.4653,-3.4692,-3.467,-3.4697,-3.469,-3.467,-3.4673,-3.4739,-3.4745,-3.4703,-3.482,-3.4771,-3.4781,-3.4813,-3.4828,-3.484,-3.4836,-3.4648,0,0,0,0,0,-3.4594,-3.463,-3.4633,-3.4695,-3.4704,-3.4697,-3.4716,-3.4703,-3.472,-3.4726,-3.4731,-3.4749,-3.4784,-3.4807,-3.4838,-3.4917,-3.4919,-3.4954,-3.4966,-3.4976,-3.4984,-3.5026,-3.5042,-3.4877,-3.4877,-3.4877,0,0,-3.4638,-3.4646,-3.467,-3.4707,-3.4718,-3.4757,-3.4703,-3.4746,-3.4775,-3.4733,-3.479,-3.4796,-3.4814,-3.4885,-3.4916,-3.4892,-3.503,-3.4985,-3.4993,-3.4995,-3.5035,-3.5051,-3.5065,-3.4882,-3.4881,-3.488,0,0,-3.4738,-3.4748,-3.48,-3.4813,-3.4831,-3.4827,-3.484,-3.4851,-3.4852,-3.491,-3.488,-3.4915,-3.4975,-3.4989,-3.5005,-3.5115,-3.5089,-3.5126,-3.5187,-3.5229,-3.5242,-3.5253,-3.5292,-3.5306,-3.5134,-3.5134,-3.5135,0,-3.4791,-3.4847,-3.483,-3.4876,-3.4893,-3.4859,-3.4912,-3.4926,-3.4954,-3.4967,-3.494,-3.5015,-3.5025,-3.5099,-3.5126,-3.514,-3.5154,-3.5123,-3.5241,-3.5253,-3.5263,-3.5299,-3.5314,-3.5139,-3.5138,-3.5138,-3.5137,0,-3.4911,-3.4951,-3.4992,-3.5019,-3.5042,-3.5091,-3.5083,-3.5109,-3.5095,-3.5093,-3.5154,-3.5165,-3.5199,-3.5216,-3.5203,-3.5289,-3.5273,-3.5244,-3.5194,-3.5283,-3.5317,-3.5331,-3.5145,-3.5143,-3.5142,-3.5141,0,0,-3.5047,-3.5067,-3.5082,-3.5094,-3.5113,-3.5144,-3.5193,-3.5226,-3.5248,-3.527,-3.531,-3.5363,-3.5337,-3.5355,-3.5343,-3.5381,-3.5467,-3.5347,-3.5347,-3.5368,-3.5562,-3.5582,-3.5599,-3.5451,-3.5454,-3.5456,-3.556,0,-3.5146,-3.5229,-3.5217,-3.5297,-3.5334,-3.5304,-3.5346,-3.5363,-3.5365,-3.5397,-3.5399,-3.5436,-3.5399,-3.541,-3.5446,-3.5448,-3.5505,-3.5441,-3.5489,-3.5491,-3.5482,-3.5616,-3.5637,-3.5735,-3.5573,-3.5576,-3.5577,0,-3.5271,-3.5298,-3.5382,-3.5396,-3.5412,-3.545,-3.548,-3.5512,-3.5531,-3.553,-3.5551,-3.5534,-3.5584,-3.5536,-3.5606,-3.5562,-3.5582,-3.5587,-3.559,-3.5592,-3.5537,-3.5621,-3.5766,-3.578,-3.5598,-3.5597,-3.5595,0,-3.5361,-3.5417,-3.5475,-3.5487,-3.5506,-3.5534,-3.5543,-3.556,-3.5581,-3.5608,-3.5622,-3.5655,-3.5673,-3.57,-3.5693,-3.5658,-3.5764,-3.5715,-3.5764,-3.5764,-3.5785,-3.5784,-3.5934,-3.5802,-3.5801,-3.5801,-3.5801,0,-3.5471,-3.5523,-3.5515,-3.5551,-3.5609,-3.5596,-3.5655,-3.5661,-3.5677,-3.5714,-3.569,-3.5726,-3.5715,-3.575,-3.5745,-3.5804,-3.5812,-3.5813,-3.581,-3.5814,-3.5813,-3.5824,-3.5816,-3.5805,-3.5804,-3.5803,-3.5803,0,-3.5579,-3.5576,-3.5636,-3.565,-3.5655,-3.5698,-3.571,-3.5744,-3.5744,-3.5791,-3.5802,-3.5803,-3.5844,-3.584,-3.5886,-3.5883,-3.5955,-3.5945,-3.5947,-3.5945,-3.5993,-3.5988,-3.6154,-3.6175,-3.6031,-3.6033,-3.6034,0,-3.5648,-3.5688,-3.5706,-3.5729,-3.574,-3.5778,-3.58,-3.579,-3.5814,-3.5841,-3.5872,-3.591,-3.594,-3.6007,-3.6012,-3.6048,-3.6038,-3.6094,-3.6043,-3.6045,-3.6037,-3.6034,-3.6038,-3.6103,-3.6105,-3.6106,-3.6107,0,-3.5772,-3.5769,-3.58,-3.5833,-3.586,-3.5885,-3.5908,-3.5928,-3.5921,-3.5949,-3.599,-3.6014,-3.6061,-3.61,-3.6134,-3.6145,-3.6125,-3.6124,-3.6137,-3.6139,-3.6138,-3.6138,-3.5973,-3.6119,-3.6118,-3.6117,-3.6116,-3.6116,-3.5861,-3.5895,-3.5914,-3.5951,-3.5967,-3.599,-3.6023,-3.6028,-3.6062,-3.6099,-3.6092,-3.6139,-3.616,-3.6204,-3.6218,-3.6255,-3.6235,-3.6254,-3.6258,-3.6263,-3.6268,-3.6134,-3.6262,-3.6261,-3.6261,-3.6261,-3.626,0,-3.5982,-3.5993,-3.6028,-3.606,-3.609,-3.607,-3.6095,-3.6121,-3.6162,-3.6184,-3.6214,-3.6262,-3.6301,-3.631,-3.6347,-3.6375,-3.6367,-3.6385,-3.6382,-3.6385,-3.6284,-3.6269,-3.6391,-3.6391,-3.6391,-3.6391,-3.6391,-3.6391,-3.6048,-3.6105,-3.6105,-3.617,-3.6182,-3.6226,-3.6242,-3.6264,-3.628,-3.6335,-3.6367,-3.6373,-3.639,-3.6429,-3.6464,-3.6466,-3.648,-3.6501,-3.65,-3.6405,-3.6392,-3.6379,-3.6364,-3.6505,-3.6505,-3.6597,-3.6598,-3.6598]},{"header":{"parameterUnit":"m.s-1","parameterCategory":1,"la1":30.2991,"la2":30.254,"lo1":-89.0895,"lo2":-89.0444,"dy":0.0017,"dx":0.0017,"nx":28,"ny":28,"refTime":"2023-11-09T09:00:00:Z","depth":0,"parameterNumber":3,"parameterNumberName":"V-component_of_WINDS"},"data":[0,0,0,0,0,0,0,0,0,0,0,0,0,0,0,0,0,0,0,0,0,0,0,0,0,0,0,0,0,0,0,0,0,0,0,0,0,0,0,0,0,0,0,0,0,0,0,0,0,0,0,0,0,0,0,0,0,0,0.0065,0.0066,0,0.0139,0.014,0.0141,0.0195,0.0195,0.0195,0.0196,0.0275,0.0277,0.0279,0,0,0,0,0,0,0,0,0,0,0,0,0,-0.0025,-0.0024,0.0065,0.0066,0.0067,0.0139,0.014,0.0141,0.0194,0.0195,0.0196,0.0196,0.0275,0.0277,0.0279,0,0,0,0,0,0,0,0,0,0,0,0,0,0.0028,-0.0023,0.0065,0.0102,0.0106,0.0139,0.014,0.0141,0.0194,0.0195,0.0196,0.0196,0.0274,0.0277,0.0279,0.0282,0,0,0.0287,0.0288,0,0,0,0,0,0,0,0,0.0025,0.0031,0.0096,0.01,0.0104,0.0158,0.0138,0.0189,0.0194,0.0161,0.0196,0.0197,0.0236,0.0242,0.0254,0.0285,0.0289,0.0287,0.0289,0.029,0.0291,0,0,0,0,0,0,0,0.0021,0.0029,0.0094,0.0097,0.0102,0.0117,0.0125,0.0147,0.0194,0.0164,0.0168,0.0176,0.0239,0.0252,0.0257,0.029,0.0287,0.0289,0.0291,0.0292,0.0331,0.033,0,0,0,0,0,0,0.0011,0.0025,0.0092,0.0097,0.0065,0.0118,0.0127,0.014,0.0194,0.0203,0.0175,0.0178,0.0247,0.0254,0.026,0.0268,0.029,0.0292,0.0294,0.0331,0.033,0.033,0,0,0,0,0,0,0.0009,0.0017,0.0089,0.0062,0.0072,0.0119,0.0133,0.0141,0.0155,0.0202,0.0211,0.018,0.0248,0.0256,0.0276,0.0272,0.0293,0.0296,0.0332,0.0331,0.033,0.0283,0,0,0,0,0,0,0.0006,0.0015,0.0015,0.0062,0.0074,0.0102,0.0133,0.0142,0.0158,0.0163,0.0209,0.0217,0.0249,0.0272,0.0279,0.0275,0.0298,0.0332,0.0331,0.033,0.0286,0.0281,0.0277,0,0,0,0,0,0.0003,-0.0,0.0015,0.0023,0.0074,0.0102,0.0109,0.0144,0.0158,0.0159,0.019,0.0216,0.0271,0.0274,0.0282,0.0279,0.0333,0.0332,0.033,0.0287,0.0282,0.0277,0,0,0,0,0,0,-0.0048,0.0006,0.0024,0.0035,0.0064,0.0111,0.0114,0.0137,0.0163,0.0166,0.0211,0.0221,0.0237,0.026,0.0262,0.0286,0.0305,0.0306,0.027,0.0265,0.0261,0.0255,0.03,0,0,0,0,0,-0.0058,-0.0041,0.0006,0.0011,0.0025,0.0066,0.008,0.0105,0.0137,0.0149,0.0182,0.0213,0.0238,0.0253,0.0278,0.029,0.0302,0.0292,0.0288,0.0284,0.0284,0.0295,0.0292,0.0326,0.0326,0.0326,0,0,-0.0078,-0.0046,-0.0039,0.0002,0.0027,0.0045,0.0076,0.0093,0.0108,0.0152,0.0173,0.0199,0.0237,0.0253,0.0262,0.0273,0.0277,0.0283,0.0279,0.0281,0.0293,0.029,0.0287,0.0325,0.0325,0.0326,0,0,-0.0105,-0.0081,-0.0073,-0.0048,-0.0011,0.0018,0.002,0.0064,0.0082,0.0104,0.0138,0.0158,0.0198,0.0224,0.0243,0.0228,0.0254,0.0235,0.0214,0.0224,0.0221,0.0219,0.0215,0.0213,0.0235,0.0235,0.0235,0,-0.0135,-0.0108,-0.0071,-0.0055,-0.0037,0.0003,0.0013,0.0036,0.008,0.0092,0.0103,0.0157,0.0185,0.021,0.0206,0.022,0.0225,0.023,0.0218,0.0216,0.0215,0.0212,0.021,0.0233,0.0233,0.0233,0.0233,0,-0.0145,-0.0127,-0.0124,-0.0084,-0.0065,-0.0053,-0.0012,0.0003,0.0027,0.0055,0.0078,0.0114,0.0148,0.0156,0.0179,0.0185,0.0191,0.0209,0.023,0.0209,0.0207,0.0206,0.0229,0.023,0.0231,0.0231,0,0,-0.0204,-0.0142,-0.0141,-0.0121,-0.0076,-0.006,-0.0044,-0.0012,0.0001,0.0031,0.0047,0.0081,0.01,0.0121,0.0149,0.0157,0.0146,0.0176,0.0177,0.017,0.0156,0.0142,0.014,0.0163,0.0163,0.0163,0.0153,0,-0.0224,-0.0195,-0.016,-0.0142,-0.0123,-0.0083,-0.0069,-0.0038,-0.0011,0.0011,0.0042,0.0066,0.0088,0.0101,0.0111,0.0145,0.0144,0.0146,0.018,0.0181,0.017,0.0139,0.0123,0.0112,0.0153,0.0153,0.0153,0,-0.0244,-0.0216,-0.0197,-0.0152,-0.0142,-0.013,-0.0096,-0.0077,-0.004,-0.0021,0.0004,0.0034,0.0055,0.0073,0.0105,0.0106,0.0123,0.0141,0.0142,0.0147,0.0165,0.0144,0.011,0.0108,0.0152,0.0152,0.0152,0,-0.0287,-0.0245,-0.0228,-0.0212,-0.0159,-0.0151,-0.0128,-0.0091,-0.0073,-0.0042,-0.0029,0.0004,0.0022,0.0048,0.0087,0.0096,0.0116,0.0136,0.0134,0.0133,0.0136,0.0136,0.0105,0.0146,0.0146,0.0146,0.0146,0,-0.0312,-0.0302,-0.0246,-0.0236,-0.0221,-0.018,-0.0166,-0.0139,-0.0106,-0.0088,-0.005,-0.0033,0.0017,0.0041,0.0072,0.0095,0.0102,0.012,0.0129,0.0117,0.0115,0.0129,0.0131,0.0145,0.0145,0.0145,0.0145,0,-0.0359,-0.0321,-0.0299,-0.025,-0.0237,-0.0229,-0.0186,-0.0173,-0.0143,-0.0119,-0.0111,-0.0064,-0.0033,0.0008,0.0051,0.0073,0.0092,0.0104,0.0079,0.0084,0.008,0.008,0.0058,0.0058,0.0097,0.0096,0.0096,0,-0.0377,-0.0368,-0.0318,-0.0304,-0.0282,-0.0259,-0.024,-0.0198,-0.0179,-0.0136,-0.0127,-0.0094,-0.0065,-0.0018,0.0022,0.0056,0.007,0.006,0.0075,0.0065,0.0072,0.0071,0.0073,0.0056,0.0055,0.0055,0.0054,0,-0.0414,-0.0395,-0.0371,-0.0339,-0.0317,-0.029,-0.026,-0.025,-0.0201,-0.0181,-0.015,-0.0128,-0.0084,-0.005,-0.0011,0.0016,0.0044,0.0049,0.0051,0.004,0.0025,0.0035,0.0069,0.005,0.005,0.005,0.0051,0.0051,-0.0446,-0.0435,-0.0398,-0.037,-0.0344,-0.0317,-0.0301,-0.0269,-0.0243,-0.0205,-0.018,-0.015,-0.011,-0.0054,-0.0029,-0.0002,0.0009,0.0011,0.0011,0.0011,0.0008,0.002,0.0005,0.0005,0.0005,0.0006,0.0006,0,-0.0479,-0.0453,-0.0428,-0.0388,-0.0366,-0.0343,-0.0308,-0.029,-0.0265,-0.0231,-0.0203,-0.0166,-0.0133,-0.009,-0.0053,-0.004,-0.0026,-0.0032,-0.0032,-0.0026,-0.0005,-0.0009,-0.0044,-0.0044,-0.0044,-0.0044,-0.0044,-0.0044,-0.0494,-0.0474,-0.0451,-0.0416,-0.0389,-0.036,-0.0342,-0.0316,-0.0288,-0.0249,-0.0222,-0.0194,-0.0156,-0.0115,-0.0083,-0.0071,-0.0058,-0.0068,-0.0052,-0.0032,-0.0028,-0.0024,-0.0028,-0.0066,-0.0066,-0.0075,-0.0075,-0.0075]}]]